Regional Weather Roundup
Issued by NWS Kansas City/Pleasant Hill, MO

Home | Current Version | Previous Version | Text Only | Print | Product List | Glossary On
Versions: 1 2 3 4 5 6 7 8 9 10 11 12 13 14 15 16 17 18 19 20 21 22 23 24 25 26 27 28 29 30 31 32 33 34 35 36 37 38 39 40 41 42 43 44 45 46 47 48 49 50
305
ASUS43 KEAX 091510
RWREAX

WEATHER ROUNDUP FOR EASTERN KANSAS AND NORTHWEST MISSOURI
NATIONAL WEATHER SERVICE KANSAS CITY/PLEASANT HILL MO
900 AM CST TUE FEB 09 2016

KSZ040-057-103>105-MOZ028-029-037-043-091600-
...KANSAS CITY METROPOLITAN AREA...

CITY           SKY/WX    TMP DP  RH WIND       PRES   REMARKS
K.C. INTL      MOSUNNY   18   8  65 N22G30    30.15R WCI   1
K.C. DOWNTOWN  MOSUNNY   20   7  57 NW20G35   30.17R WCI   4
LEES SUMMIT    SUNNY     19   6  57 NW18G30   30.15R WCI   4
OLATHE - IXD   SUNNY     20  10  65 N18       30.17R WCI   5
OLATHE - OJC   SUNNY     19   7  59 N21G30    30.16R WCI   3
LAWRENCE       SUNNY     22  10  60 N16       30.19R WCI   8

$$

MOZ001>008-011>017-020>025-030>033-038>040-044>046-053-054-091600-
...NORTHERN AND CENTRAL MISSOURI...

CITY           SKY/WX    TMP DP  RH WIND       PRES   REMARKS
ST. JOSEPH     SUNNY     17   5  59 N24G33    30.20R WCI  -1
MOSBY          MOSUNNY   18   9  68 NW15G23   30.17R WCI   3
WARRENSBURG    MOSUNNY   19  10  68 NW17G24   30.14R WCI   4
WHITEMAN AFB   PTSUNNY   19   7  60 NW15      30.11R WCI   4
CLINTON          N/A     23  12  63 N15G22    30.13R WCI  10
SEDALIA        CLOUDY    18   7  62 NW24G31   30.11R WCI   0
WARSAW         NOT AVBL
CHILLICOTHE      N/A     18   8  65 NW15G25   30.13R WCI   4
KIRKSVILLE     FLURRIES  15   5  64 NW20G26   30.05R WCI  -2

$$

MOZ041-047>049-056>058-063>065-088>090-097-091600-
...EASTERN AND SOUTHERN MISSOURI...

CITY           SKY/WX    TMP DP  RH WIND       PRES   REMARKS
ST. LOUIS INTL LGT SNOW  19  10  68 NW21G26   29.98S WCI   3
SPIRIT OF STL  CLOUDY    20  10  65 NW21G28   30.00R WCI   4
COLUMBIA       FLURRIES  18   9  68 NW21      30.04R WCI   1
JEFFERSON CITY CLOUDY    19   8  62 NW14G23   30.07R WCI   6
ROLLA          LGT SNOW  18  10  71 NW14      29.99R WCI   4
OSAGE BEACH    CLOUDY    19   7  58 NW15G22   30.06R WCI   5
SPRINGFIELD    SUNNY     27   9  46 NW26G38   30.04R WCI  12
BRANSON        MOSUNNY   30   9  40 NW20G31   30.03R WCI  18
JOPLIN         SUNNY     31  16  54 N20G28    30.14R WCI  19
WEST PLAINS    CLOUDY    24  10  55 NW18G25   29.99R WCI  10

$$

IAZ060-094-KSZ022-034>040-054-083-096-NEZ052-066-093-091600-
...KANSAS...SOUTHEAST NEBRASKA AND IOWA...

CITY           SKY/WX    TMP DP  RH WIND       PRES   REMARKS
TOPEKA         SUNNY     26   9  48 NW21      30.20R WCI  12
MANHATTAN      SUNNY     27   6  41 N12G23    30.25R WCI  17
EMPORIA        SUNNY     28  13  53 N18G28    30.19R WCI  15
CHANUTE        SUNNY     31  14  49 NW21G30   30.18R WCI  18
WICHITA        PTSUNNY   35  19  52 N18       30.23R WCI  24
OMAHA          MOSUNNY   15   5  64 N25G31    30.22R WCI  -4
LINCOLN        SUNNY     18   7  62 N20       30.27R WCI   2
FALLS CITY     MOSUNNY   19   8  62 NW17G24   30.20R WCI   4
LAMONI         PTSUNNY   11   3  70 NW18G29   30.11R WCI  -7
DES MOINES     MOSUNNY   11   2  67 NW21      30.12R WCI  -8

$$





USA.gov is the U.S. government's official web portal to all federal, state and local government web resources and services.